Regional Weather Roundup
Issued by NWS Nashville, TN

Home | Current Version | Previous Version | Text Only | Print | Product List | Glossary On
Versions: 1 2 3 4 5 6 7 8 9 10 11 12 13 14 15 16 17 18 19 20 21 22 23 24 25 26 27 28 29 30 31 32 33 34 35 36 37 38 39 40 41 42 43 44 45 46 47 48 49 50
000
ASUS44 KOHX 211210
RWROHX
MIDDLE TENNESSEE HOURLY WEATHER ROUNDUP
NATIONAL WEATHER SERVICE NASHVILLE TN
700 AM CDT MON AUG 21 2017

NOTE: "FAIR" INDICATES FEW OR NO CLOUDS BELOW 12,000 FEET WITH
NO SIGNIFICANT WEATHER AND/OR OBSTRUCTIONS TO VISIBILITY.

* THESE REPORTS ARE NOT UNDER NWS QUALITY CONTROL AND MAY NOT
  REPORT WEATHER SUCH AS PRECIPITATION AND FOG.


TNZ005>011-023>034-057-059-062>066-078-080-211300
...NORTHERN MIDDLE TENNESSEE...

CITY           SKY/WX    TMP DP  RH WIND       PRES   REMARKS
CLARKSVILLE    CLEAR     69  67  93 E3        30.16R
CROSSVILLE     SUNNY     66  65  96 CALM      30.26R
GALLATIN       CLEAR     70  66  88 CALM      30.20R
DICKSON        CLEAR     67  65  93 CALM      30.16R
LEBANON        CLEAR     68  66  93 CALM      30.16R
NASHVILLE      PTCLDY    73  70  90 CALM      30.17R
PORTLAND       CLEAR     70  68  94 S3        30.17R
SMYRNA         CLEAR     70  69  97 CALM      30.18R
SPARTA         CLEAR     68  68 100 CALM      30.19R
WEST NASHVILLE PTCLDY    72  70  94 CALM      30.15R
$$
TNZ056-058-060-061-075>077-079-093>097-211300
...SOUTHERN MIDDLE TENNESSEE...

CITY           SKY/WX    TMP DP  RH WIND       PRES   REMARKS
COLUMBIA       CLEAR     70  70 100 CALM      30.15R
FAYETTEVILLE   CLEAR     70  68  94 CALM      30.17S
MCMINNVILLE    CLEAR     68  68 100 CALM      30.20R
MURFREESBORO   CLEAR     70  68  93 CALM      30.16R
PULASKI        CLEAR     68  68 100 CALM      30.16R FOG
SHELBYVILLE    CLEAR     70  68  94 E3        30.17R
TULLAHOMA      CLEAR     68  64  88 CALM      30.20R
WINCHESTER     CLEAR     70  66  88 CALM      30.19R
$$


...KEY TO REMARKS...
VSB - VISIBILITY IN MILES
WCI - WIND CHILL INDEX
HX  - HEAT INDEX




USA.gov is the U.S. government's official web portal to all federal, state and local government web resources and services.